Weather History for KJRB - February, 2014

Change the Weather History Date:

Thursday, February 27, 2014

  Actual Average (KNYC) Record (KNYC)
Temperature  
Mean Temperature 25 °F 38 °F  
Max Temperature 33 °F 44 °F 72 °F (1997)
Min Temperature 15 °F 31 °F 5 °F (1900)
Degree Days  
Heating Degree Days 40 27  
Month to date heating degree days 805  
Since 1 July heating degree days 3494  
Cooling Degree Days 0 0  
Month to date cooling degree days 0  
Year to date cooling degree days 0  
Moisture  
Dew Point 9 °F    
Average Humidity 50    
Maximum Humidity 74    
Minimum Humidity 30    
Precipitation  
Precipitation 0.31 in 0.12 in 1.56 in (2013)
Month to date precipitation 2.97  
Year to date precipitation 6.62  
Snow  
Snow 0.00 in 0.20 in 4.00 in (1873)
Month to date snowfall 8.9  
Since 1 July snowfall 21.0  
Snow Depth -    
Sea Level Pressure  
Sea Level Pressure 29.80 in    
Wind  
Wind Speed 6 mph (WSW)    
Max Wind Speed 18 mph    
Max Gust Speed 45 mph    
Visibility 10 miles    
Events      
T = Trace of Precipitation, MM = Missing Value Source: NWS Daily Summary

Daily Weather History Graph

Daily Weather History Graph

Search for Another Location

Airport or City:

Trip Planner

Search our weather history database for the weather conditions in past years. The results will help you decide how hot, cold, wet, or windy it might be!

Date:

Astronomy

Feb. 27, 2014 Rise Set
Actual Time 6:33 AM EST 5:45 PM EST
Civil Twilight 6:05 AM EST 6:12 PM EST
Nautical Twilight 5:33 AM EST 6:44 PM EST
Astronomical Twilight 5:02 AM EST 7:16 PM EST
Moon 5:03 AM EST (2/27) 4:07 PM EST (2/27)
Length of Visible Light 12h 07m
Length of Day
11h 12m
Waning Crescent, 4% of the Moon is Illuminated
Feb 27
Waning Crescent
Mar 1
New
Mar 8
First Quarter
Mar 16
Full
Mar 23
Last Quarter

Hourly Weather History & Observations

Time (EST) Temp. Windchill Dew Point Humidity Pressure Visibility Wind Dir Wind Speed Gust Speed Precip Events Conditions
12:15 AM 23.0 °F - -0.4 °F 36% 29.90 in 10.0 mi Calm Calm - N/A   Clear
12:35 AM 23.0 °F - -0.4 °F 36% 29.89 in 10.0 mi Calm Calm - N/A   Clear
12:55 AM 23.0 °F - 1.4 °F 39% 29.89 in 10.0 mi Calm Calm - N/A   Clear
1:15 AM 23.0 °F 18.4 °F -0.4 °F 36% 29.89 in 10.0 mi West 3.5 mph - N/A   Clear
1:35 AM 21.2 °F 16.4 °F 1.4 °F 42% 29.88 in 10.0 mi West 3.5 mph - N/A   Clear
1:55 AM 21.2 °F - 3.2 °F 46% 29.87 in 10.0 mi Calm Calm - N/A   Clear
2:15 AM 21.2 °F - 3.2 °F 46% 29.87 in 10.0 mi Calm Calm - N/A   Clear
2:35 AM 21.2 °F - 3.2 °F 46% 29.86 in 10.0 mi Calm Calm - N/A   Clear
2:55 AM 21.2 °F 14.9 °F 3.2 °F 46% 29.85 in 10.0 mi South 4.6 mph - N/A   Clear
3:15 AM 21.2 °F 13.6 °F 5.0 °F 50% 29.84 in 10.0 mi SSE 5.8 mph - N/A   Clear
3:35 AM 21.2 °F 12.6 °F 5.0 °F 50% 29.82 in 10.0 mi SSE 6.9 mph - N/A   Clear
3:55 AM 21.2 °F 14.9 °F 6.8 °F 54% 29.82 in 10.0 mi SE 4.6 mph - N/A   Clear
4:15 AM 23.0 °F 18.4 °F 6.8 °F 50% 29.80 in 10.0 mi East 3.5 mph - N/A   Clear
4:35 AM 23.0 °F 14.7 °F 8.6 °F 54% 29.80 in 10.0 mi ENE 6.9 mph - N/A   Clear
4:55 AM 23.0 °F 17.0 °F 8.6 °F 54% 29.79 in 10.0 mi East 4.6 mph - N/A   Clear
5:15 AM 23.0 °F 18.4 °F 10.4 °F 59% 29.79 in 10.0 mi ESE 3.5 mph - N/A   Clear
5:35 AM 23.0 °F 18.4 °F 8.6 °F 54% 29.78 in 10.0 mi ESE 3.5 mph - N/A   Clear
5:55 AM 23.0 °F - 10.4 °F 59% 29.78 in 10.0 mi Calm Calm - N/A   Clear
6:15 AM 23.0 °F 18.4 °F 10.4 °F 59% 29.77 in 10.0 mi ESE 3.5 mph - N/A   Clear
6:35 AM 24.8 °F - 12.2 °F 59% 29.76 in 10.0 mi Calm Calm - N/A   Clear
6:55 AM 24.8 °F 20.5 °F 14.0 °F 64% 29.76 in 10.0 mi South 3.5 mph - N/A   Clear
7:15 AM 26.6 °F 16.8 °F 15.8 °F 64% 29.76 in 10.0 mi SW 10.4 mph - N/A   Scattered Clouds
7:35 AM 26.6 °F 18.2 °F 17.6 °F 69% 29.75 in 10.0 mi WSW 8.1 mph - N/A   Mostly Cloudy
7:55 AM 26.6 °F 17.5 °F 19.4 °F 74% 29.75 in 10.0 mi SW 9.2 mph - N/A   Mostly Cloudy
8:15 AM 26.6 °F 16.8 °F 17.6 °F 69% 29.75 in 10.0 mi SW 10.4 mph - N/A   Overcast
8:35 AM 26.6 °F 15.7 °F 15.8 °F 64% 29.75 in 10.0 mi SW 12.7 mph - N/A   Overcast
8:55 AM 28.4 °F 18.5 °F 14.0 °F 55% 29.74 in 10.0 mi SW 11.5 mph - N/A   Overcast
9:15 AM 28.4 °F 18.5 °F 10.4 °F 47% 29.74 in 10.0 mi SW 11.5 mph - N/A   Mostly Cloudy
9:35 AM 28.4 °F 18.5 °F 8.6 °F 43% 29.74 in 10.0 mi SW 11.5 mph - N/A   Mostly Cloudy
9:55 AM 28.4 °F 18.5 °F 10.4 °F 47% 29.72 in 10.0 mi WSW 11.5 mph 16.1 mph N/A   Overcast
10:15 AM 28.4 °F 19.1 °F 10.4 °F 47% 29.72 in 10.0 mi SW 10.4 mph 17.3 mph N/A   Overcast
10:35 AM 28.4 °F 19.1 °F 10.4 °F 47% 29.71 in 10.0 mi SW 10.4 mph 17.3 mph N/A   Overcast
10:55 AM 30.2 °F 20.8 °F 10.4 °F 44% 29.70 in 10.0 mi SW 11.5 mph 34.5 mph 0.17 in   Overcast
11:15 AM 30.2 °F 18.5 °F 14.0 °F 51% 29.69 in 10.0 mi WSW 17.3 mph 24.2 mph N/A   Overcast
11:35 AM 30.2 °F 18.5 °F 15.8 °F 55% 29.69 in 10.0 mi WSW 17.3 mph 24.2 mph N/A   Overcast
11:55 AM 30.2 °F 19.8 °F 17.6 °F 60% 29.68 in 10.0 mi West 13.8 mph 20.7 mph N/A   Mostly Cloudy
12:15 PM 30.2 °F 20.8 °F 17.6 °F 60% 29.66 in 10.0 mi West 11.5 mph 18.4 mph N/A   Overcast
12:35 PM 30.2 °F 21.9 °F 17.6 °F 60% 29.65 in 10.0 mi West 9.2 mph - N/A   Overcast
12:55 PM 30.2 °F 19.8 °F 17.6 °F 60% 29.65 in 10.0 mi West 13.8 mph 19.6 mph N/A   Mostly Cloudy
1:15 PM 32.0 °F 22.1 °F 19.4 °F 60% 29.64 in 10.0 mi West 13.8 mph 19.6 mph N/A   Mostly Cloudy
1:35 PM 32.0 °F 20.8 °F 15.8 °F 51% 29.63 in 10.0 mi West 17.3 mph 26.5 mph 0.01 in   Overcast
1:55 PM 32.0 °F 20.5 °F 12.2 °F 44% 29.64 in 10.0 mi West 18.4 mph 44.9 mph 0.09 in   Mostly Cloudy
2:15 PM 33.8 °F 23.2 °F 6.8 °F 32% 29.64 in 10.0 mi West 17.3 mph 28.8 mph N/A   Mostly Cloudy
2:35 PM 33.8 °F 22.8 °F 5.0 °F 30% 29.65 in 10.0 mi West 18.4 mph 33.4 mph N/A   Mostly Cloudy
2:55 PM 32.0 °F 24.2 °F 8.6 °F 38% 29.66 in 10.0 mi West 9.2 mph 28.8 mph N/A   Mostly Cloudy
3:15 PM 33.8 °F 25.8 °F 8.6 °F 35% 29.68 in 10.0 mi WNW 10.4 mph 27.6 mph 0.03 in   Scattered Clouds
3:35 PM 33.8 °F 22.8 °F 6.8 °F 32% 29.69 in 10.0 mi West 18.4 mph 27.6 mph 0.03 in   Partly Cloudy
3:55 PM 32.0 °F 27.5 °F 8.6 °F 38% 29.70 in 10.0 mi WNW 4.6 mph 24.2 mph 0.03 in   Scattered Clouds
4:15 PM 30.2 °F 24.3 °F 10.4 °F 44% 29.71 in 10.0 mi WSW 5.8 mph - N/A   Mostly Cloudy
4:35 PM 32.0 °F 28.7 °F 8.6 °F 38% 29.72 in 10.0 mi West 3.5 mph - N/A   Mostly Cloudy
4:55 PM 32.0 °F 20.5 °F 8.6 °F 38% 29.72 in 10.0 mi West 18.4 mph 28.8 mph N/A   Mostly Cloudy
5:15 PM 30.2 °F 18.9 °F 8.6 °F 40% 29.74 in 10.0 mi West 16.1 mph 25.3 mph N/A   Mostly Cloudy
5:35 PM 30.2 °F 20.8 °F 10.4 °F 44% 29.75 in 10.0 mi WNW 11.5 mph 26.5 mph N/A   Partly Cloudy
5:55 PM 30.2 °F 19.8 °F 10.4 °F 44% 29.76 in 10.0 mi West 13.8 mph 25.3 mph N/A   Partly Cloudy
6:15 PM 30.2 °F 20.8 °F 14.0 °F 51% 29.78 in 10.0 mi West 11.5 mph 28.8 mph N/A   Scattered Clouds
6:35 PM 28.4 °F 17.0 °F 15.8 °F 59% 29.80 in 10.0 mi West 15.0 mph 24.2 mph N/A   Scattered Clouds
6:55 PM 28.4 °F 21.2 °F 14.0 °F 55% 29.83 in 10.0 mi North 6.9 mph 31.1 mph 0.02 in   Mostly Cloudy
7:15 PM 26.6 °F 22.6 °F 15.8 °F 64% 29.85 in 10.0 mi ENE 3.5 mph - N/A   Mostly Cloudy
7:35 PM 26.6 °F 22.6 °F 17.6 °F 69% 29.88 in 10.0 mi NW 3.5 mph - N/A   Overcast
7:55 PM 26.6 °F 21.2 °F 15.8 °F 64% 29.90 in 10.0 mi NNW 4.6 mph - N/A   Mostly Cloudy
8:15 PM 24.8 °F - 14.0 °F 64% 29.92 in 10.0 mi Calm Calm - N/A   Mostly Cloudy
8:35 PM 24.8 °F 20.5 °F 10.4 °F 54% 29.94 in 10.0 mi WNW 3.5 mph - N/A   Mostly Cloudy
8:55 PM 24.8 °F 19.1 °F 10.4 °F 54% 29.96 in 10.0 mi West 4.6 mph - N/A   Clear
9:15 PM 23.0 °F - 3.2 °F 43% 29.98 in 10.0 mi Calm Calm - N/A   Clear
9:35 PM 21.2 °F 13.6 °F 3.2 °F 46% 29.99 in 10.0 mi West 5.8 mph - N/A   Clear
9:55 PM 21.2 °F 11.7 °F 1.4 °F 42% 30.01 in 10.0 mi NW 8.1 mph - N/A   Clear
10:15 PM 21.2 °F - 1.4 °F 42% 30.03 in 10.0 mi Calm Calm - N/A   Clear
10:35 PM 19.4 °F 12.8 °F -0.4 °F 42% 30.05 in 10.0 mi West 4.6 mph - N/A   Clear
10:55 PM 17.6 °F - -2.2 °F 42% 30.08 in 10.0 mi Calm Calm - N/A   Clear
11:15 PM 17.6 °F 7.3 °F -5.8 °F 35% 30.09 in 10.0 mi NNW 8.1 mph - N/A   Clear
11:35 PM 17.6 °F 7.3 °F -5.8 °F 35% 30.11 in 10.0 mi West 8.1 mph - N/A   Clear
11:55 PM 15.8 °F 8.6 °F -2.2 °F 45% 30.12 in 10.0 mi West 4.6 mph - N/A   Clear